STARLINK-38350, 100616

Orbit data source: Space-Track

STARLINK-38350, 100616 is a payload satellite owned by SpaceX/Seattle (US) in LEO that was launched on Sun, 06 Sep 2026 UTC launched from the Air Force Western Test Range (AFWTR). Payload-class satellites include a variety of spacecraft equipped with specific instruments for various scientific and technological missions. These include communications satellites like Starlink; space stations such as the ISS; scientific satellites like the Hubble; Earth observation satellites from companies like Planet Labs, Umbra, and HawkEye 360; GPS; miniature CubeSats for education and research; and military/defense satellites.

Not visible in the next 10 days
Identifier
100616, 2026-204B
Orbit
LEO
Country
Flag of USUS
Related business
Manufacturer
SpaceX/Seattle
Mission
Operational spacecraft
Bus & Motor
STARLINK V2MO, Unknown motor
Mass
575 kg wet, ~530 kg dry
Launch date (UTC)
2026-09-06 (5 days ago)
Launch vehicle
Unknown
Launch site
Air Force Western Test Range (AFWTR)
Object type
Payload
Rocket body
Debris
Shape & HBR
BOX + PAN, 17.7 m
Radar Cross Section
RCS unknown

Expand to show TLE details & history
Last TLE update: 21 hours ago

TLE from 21 hours ago
0 STARLINK-38350
1 A0616U 26204B   26253.56218566 -.01045094  37871-3 -15060-2 0  9992
2 A0616  69.9978 266.2234 0004323 270.5347  89.5371 16.05183700   642
Epoch: 2026-09-10T13:29Z
TLE epoch observation values (Epoch: 2026-09-10T13:29:32.841Z)
Latitude
-0.00002°
Longitude
74.23844°
Altitude
262.604 km
Speed
7.75 km/s
True Right ascension
17h 44m 53s
True Declination
0° 00' 00"
Sunlit
Object was in daylight at epoch
Visualization orbit readout
Latitude
Unknown
Longitude
Unknown
Altitude
Unknown
Speed
Unknown
Apparent Right ascension
Unknown
Apparent Declination
Unknown
Sunlit
N/A
Visualization observer readout
Local Sidereal Time
02:29:20
Azimuth
Unknown
Elevation
Unknown
Doppler factor
Unknown
Orbital elements
Apogee altitude
260.809 km
Perigee altitude
255.072 km
Semi-major axis
6,636.077 km
Eccentricity
0.00043
Inclination
69.9978°
RAAN
266.2234°
Arg. of periapsis
270.5347°
True anomaly
89.58664°
Mean anomaly
89.5371°
Eccentric anomaly
89.56187°
Mean motion
4.01491 °/min
Orbital period
89.67 mins
BSTAR
-0.001506
Loading maneuver chart data...
Computing Atmospheric mass density...
Loading historical data...
Loading historical data...
Loading historical data...
Loading historical data...
Loading historical data...
Loading historical data...
Loading historical data...

Documentation

Showing up to 5 results
|